National Weather Service Raw Text Product

Displaying AFOS PIL: RWRFL Received: 2017-12-12 04:00 UTC


003 
ASUS42 KTBW 120417
RWRFL 
FLORIDA REGIONAL WEATHER ROUNDUP
NATIONAL WEATHER SERVICE TAMPA BAY RUSKIN FL
1100 PM EST MON DEC 11 2017

NOTE: "FAIR" INDICATES FEW OR NO CLOUDS BELOW 12,000 FEET WITH NO
SIGNIFICANT WEATHER AND/OR OBSTRUCTIONS TO VISIBILITY.

FLZ001>010-012>015-112-114-115-120500-
PANHANDLE FLORIDA
  
CITY           SKY/WX    TMP DP  RH WIND       PRES   REMARKS
PENSACOLA      CLEAR     53  45  74 W6        30.11S                  
PENSACOLA NAS  CLEAR     57  47  69 W6        30.10F                  
MILTON NAS     PTCLDY    49  45  86 SW8       30.10                   
CRESTVIEW      CLEAR     42  39  89 CALM      30.11F                  
DUKE FIELD     PTCLDY    52  46  79 SW7       30.09F                  
VALPARAISO     CLEAR     47  42  82 W6        30.10S WCI  45          
MARY ESTHER    CLEAR     58  46  64 W3        30.09F                  
PANAMA CITY    FAIR      44  41  89 CALM      30.09F                  
TYNDALL AFB    CLEAR     62  49  62 W12       30.11S                  
APALACHICOLA   CLEAR     47  44  90 SW5       30.12F WCI  45          

STATION/POSITION SKY/WX   TEMP    WIND        PRES    WAVE   SWELL
                          AIR SEA DIR/SP/G            HT/PER HT/PER
                          (F)     (DEG/KT/KT) (MB)    (FT/S) (FT/S)
29.2N   88.2W              65 74  250/ 17/ 21 1021.1
28.8N   86.0W              66 74  250/ 14/ 17 1020.6F   2/ 5
PANAMA CITY BEAC           65 62  250/ 18/ 21 1019.6F
TOWER C                    64     270/ 15/ 16 1020.7F

$$
FLZ011-016>038-118-127-128-134-139-239-120500-
NORTH FLORIDA
  
CITY           SKY/WX    TMP DP  RH WIND       PRES   REMARKS
MARIANNA       CLEAR     48  42  80 S3        30.09S                  
TALLAHASSEE    PTCLDY    42  39  89 CALM      30.11S                  
PERRY          CLEAR     42  41  97 CALM      30.13F FOG              
LIVE OAK       CLEAR     41  41 100 CALM      30.13F                  
CROSS CITY     CLEAR     38  37  95 CALM      30.19S                  
LAKE CITY      FAIR      39  36  87 CALM      30.12F                  
GAINESVILLE    CLEAR     38  37  97 CALM      30.17S                  
WILLISTON      CLEAR     41  39  93 CALM      30.15F                  
PALATKA        FAIR      41  37  87 W5        30.14F WCI  38          
MAYPORT NAS    CLEAR     50  38  63 SW9       30.11F                  
JACKSONVILLE   PTCLDY    45  36  70 SW3       30.11F                  
JAX NAS        CLEAR     49  36  61 SW3       30.13F                  
JAX CECIL        N/A     37  37 100 MISG      30.12F                  
ST AUGUSTINE   CLEAR     46  37  71 MISG      30.13F                  
PALM COAST     FAIR      43  37  80 CALM      30.15S                  

STATION/POSITION SKY/WX   TEMP    WIND        PRES    WAVE   SWELL
                          AIR SEA DIR/SP/G            HT/PER HT/PER
                          (F)     (DEG/KT/KT) (MB)    (FT/S) (FT/S)
SHELL POINT      NOT AVBL
KEATON BEACH               57     270/  5/  5 1019.6F
CEDAR KEY                  57     250/  3/  5 1020.9F
FERNANDINA                 50 56  230/  4/  7 1020.4F
30.7N   81.3W                 60                N/A     2/ 3
MAYPORT                    51 60  250/  9/ 11 1019.8F
31.4N   80.9W              58 60  210/ 17/ 21 1018.1F   3/ 4   2/ 8
ST AUGUSTINE               48 62  250/  7/  9 1020.6F

$$
FLZ040-043>046-052-053-057-058-063-144-120500-
INTERIOR CENTRAL FLORIDA
  
CITY           SKY/WX    TMP DP  RH WIND       PRES   REMARKS
OCALA          CLEAR     39  35  86 S3        30.16F                  
LEESBURG       CLEAR     50  42  74 SW6       30.17F                  
SANFORD        CLEAR     45  33  63 W7        30.15F WCI  41          
ORLANDO EXEC   CLEAR     49  38  65 W5        30.16F                  
ORLANDO INTL   CLEAR     43  37  81 W10       30.17F WCI  37          
KISSIMMEE      CLEAR     44  37  76 W5        30.17F WCI  42          
WINTER HAVEN   CLEAR     47  41  80 CALM      30.18F                  
BARTOW         FAIR      39  37  93 CALM      30.18F                  
SEBRING        FAIR      49  37  64 CALM      30.18F                  

$$
FLZ041-047-054-059-064-141-147-120500-
EAST CENTRAL FLORIDA
  
CITY           SKY/WX    TMP DP  RH WIND       PRES   REMARKS
DAYTONA BEACH  CLEAR     43  37  79 S3        30.15F                  
DELAND         CLEAR     46  36  66 W3        30.15F                  
JFK SPACE CTR  CLEAR     47  42  81 W3        30.14F                  
CAPE CANAVERAL CLEAR     38  33  84 W7        30.14F WCI  32          
PATRICK AFB    CLEAR     51  39  63 SW7       30.15F                  
MELBOURNE      CLEAR     45  37  73 CALM      30.16F                  
VERO BEACH     CLEAR     42  39  89 CALM      30.17F                  
FT PIERCE      CLEAR     40  39  97 CALM      30.17F                  
STUART         CLEAR     46  45  93 CALM      30.18F                  

STATION/POSITION SKY/WX   TEMP    WIND        PRES    WAVE   SWELL
                          AIR SEA DIR/SP/G            HT/PER HT/PER
                          (F)     (DEG/KT/KT) (MB)    (FT/S) (FT/S)
28.5N   80.2W              62 77  270/ 12/ 14 1020.6
TRIDENT PIER               55 70  240/  5/  5 1022.5F
28.4N   80.5W                 70                N/A     1/ 8
27.5N   80.2W                 71                N/A     2/ 9

$$
FLZ050-056-061-142-242-148-248-149-249-151-251-155-255-
160-260-120500-
WEST CENTRAL FLORIDA
  
CITY           SKY/WX    TMP DP  RH WIND       PRES   REMARKS
CRYSTAL RIVER  FAIR      37  36  93 CALM      30.16F                  
INVERNESS      FAIR      36  36 100 CALM      30.17S                  
BROOKSVILLE    CLEAR     41  37  86 CALM      30.18F                  
CLEARWATER AIR FAIR      45  43  93 CALM      30.17F                  
ST PETE CLEARW CLEAR     46  45  96 S3        30.17F                  
TAMPA INTL     CLEAR     52  42  69 CALM      30.18F                  
TAMPA EXEC     CLEAR     37  37 100 CALM      30.18F                  
PLANT CITY     CLEAR     43  37  81 CALM      30.19F                  
MACDILL AFB    CLEAR     45  41  87 CALM      30.16F                  
PETER O KNIGHT   N/A     48  45  87 CALM      30.18F                  
ST PETERSBURG  CLEAR     57  47  69 N3        30.16F                  
SARASOTA       CLEAR     46  44  93 CALM      30.16F                  
VENICE         NOT AVBL                                               

STATION/POSITION SKY/WX   TEMP    WIND        PRES    WAVE   SWELL
                          AIR SEA DIR/SP/G            HT/PER HT/PER
                          (F)     (DEG/KT/KT) (MB)    (FT/S) (FT/S)
27.3N   84.2W                 75                N/A     2/ 7
CLEARWATER BEACH           55 63  130/  3/  5 1021.7F
MIDDLE TAMPA BAY           58      10/  2/  4 1021.9F
VENICE                     56 68   50/  5/  6 1021.9F

$$
FLZ066-069-070-075>078-162-262-165-265-120500-
SOUTHWEST FLORIDA AND KEYS
  
CITY           SKY/WX    TMP DP  RH WIND       PRES   REMARKS
PUNTA GORDA    CLEAR     47  42  83 CALM      30.20F                  
FT MYERS       CLEAR     50  46  86 CALM      30.18F                  
SOUTHWEST INTL CLEAR     49  47  93 CALM      30.19F                  
NAPLES         CLEAR     50  47  89 CALM      30.18F                  
MARCO ISLAND   CLEAR     51  48  89 N5        30.19F                  
IMMOKALEE      FAIR      43  41  93 CALM      30.20F                  
MARATHON       CLEAR     61  41  47 N6        30.17F                  
KEY WEST NAS   CLEAR     62  52  69 N9        30.18F                  
KEY WEST INTL  CLEAR     62  51  67 N9        30.18F                  

STATION/POSITION SKY/WX   TEMP    WIND        PRES    WAVE   SWELL
                          AIR SEA DIR/SP/G            HT/PER HT/PER
                          (F)     (DEG/KT/KT) (MB)    (FT/S) (FT/S)
NAPLES                        69   30/  5/  7 1022.2S
DRY TORTUGAS               66      90/  2/  6 1022.0F
SAND KEY                   64                 1022.5F
MOLASSES REEF              61 74  360/ 13/ 14 1021.8F

$$
FLZ067-068-071>074-168-172>174-120500-
SOUTHEAST FLORIDA 
  
CITY           SKY/WX    TMP DP  RH WIND       PRES   REMARKS
W PALM BEACH   CLEAR     53  45  74 NW3       30.18F                  
BOCA RATON     PTCLDY   N/A N/A N/A NW5       30.17F                  
FT LAUDER-EXEC CLEAR     51  45  79 CALM      30.18S                  
FT LAUDERDALE  CLEAR     53  42  66 NW5       30.17F                  
POMPANO BEACH  CLEAR     54  45  71 NW6       30.18S                  
PEMBROKE PINES CLEAR     52  42  69 NW3       30.19F                  
OPA LOCKA      CLEAR     52  43  71 NW5       30.18F                  
MIAMI          CLEAR     57  38  48 NW3       30.18F                  
WEST KENDALL   CLEAR     49  42  77 CALM      30.18F                  
HOMESTEAD      CLEAR     51  43  72 NW7       30.17S                  

STATION/POSITION SKY/WX   TEMP    WIND        PRES    WAVE   SWELL
                          AIR SEA DIR/SP/G            HT/PER HT/PER
                          (F)     (DEG/KT/KT) (MB)    (FT/S) (FT/S)
PORT EVERGLADES            58     310/  8/ 10 1021.4F
VIRGINIA KEY               59 72  320/  4/  8 1021.3F
LAKE WORTH                 56 75  310/  5/  7 1022.8F
FOWEY ROCKS                62 74  330/ 13/ 14 1022.2F
SETTLEMENT POINT           66      90/  5/  5 1021.0F

$$